TimeEST,TemperatureF,Dew PointF,Humidity,Sea Level PressureIn,VisibilityMPH,Wind Direction,Wind SpeedMPH,Gust SpeedMPH,PrecipitationIn,Events,Conditions,WindDirDegrees,DateUTC
12:54 AM,8.1,-0.9,67,30.37,10.0,WNW,10.4,-,N/A,,Overcast,290,2014-02-07 05:54:00
1:51 AM,5.0,-2.2,72,30.37,10.0,WNW,6.9,-,N/A,,Partly Cloudy,300,2014-02-07 06:51:00
1:54 AM,5.0,-2.9,70,30.37,10.0,WNW,8.1,-,N/A,,Partly Cloudy,290,2014-02-07 06:54:00
2:54 AM,3.0,-4.0,73,30.52,10.0,NW,5.8,-,N/A,,Clear,320,2014-02-07 07:54:00
3:54 AM,1.0,-6.0,72,30.53,10.0,NW,4.6,-,N/A,,Clear,320,2014-02-07 08:54:00
4:54 AM,-2.0,-6.0,83,30.54,10.0,WSW,3.5,-,N/A,,Clear,250,2014-02-07 09:54:00
5:54 AM,-2.9,-7.1,82,30.53,10.0,WSW,3.5,-,N/A,,Clear,250,2014-02-07 10:54:00
6:54 AM,-5.1,-8.0,87,30.55,10.0,SSW,4.6,-,N/A,,Clear,210,2014-02-07 11:54:00
7:54 AM,-0.9,-8.0,72,30.54,10.0,West,4.6,-,N/A,,Clear,280,2014-02-07 12:54:00
8:54 AM,1.0,-6.0,72,30.56,10.0,WSW,4.6,-,N/A,,Clear,240,2014-02-07 13:54:00
9:54 AM,3.9,-5.1,66,30.56,10.0,West,5.8,-,N/A,,Clear,260,2014-02-07 14:54:00
10:54 AM,7.0,-4.0,61,30.56,10.0,WSW,5.8,-,N/A,,Clear,240,2014-02-07 15:54:00
11:54 AM,9.0,-2.9,59,30.57,10.0,WSW,8.1,-,N/A,,Clear,240,2014-02-07 16:54:00
12:54 PM,12.0,-2.0,53,30.55,10.0,WSW,8.1,-,0.00,,Clear,240,2014-02-07 17:54:00
1:54 PM,14.0,-0.9,52,30.53,10.0,WSW,8.1,-,0.00,,Clear,250,2014-02-07 18:54:00
2:54 PM,16.0,-0.0,49,30.52,10.0,WSW,8.1,-,N/A,,Clear,240,2014-02-07 19:54:00
3:54 PM,18.0,-0.0,45,30.52,10.0,SW,3.5,-,N/A,,Clear,220,2014-02-07 20:54:00
4:54 PM,18.0,-0.0,45,30.52,10.0,NW,4.6,-,N/A,,Clear,320,2014-02-07 21:54:00
5:54 PM,14.0,-0.0,54,30.52,10.0,NNW,4.6,-,N/A,,Clear,340,2014-02-07 22:54:00
6:54 PM,10.0,-0.0,64,30.52,10.0,NE,3.5,-,N/A,,Clear,40,2014-02-07 23:54:00
7:54 PM,7.0,-0.0,73,30.53,10.0,ESE,3.5,-,N/A,,Clear,120,2014-02-08 00:54:00
8:54 PM,8.1,-0.0,70,30.51,10.0,Calm,Calm,-,N/A,,Clear,0,2014-02-08 01:54:00
9:54 PM,5.0,-0.9,76,30.51,10.0,Calm,Calm,-,N/A,,Clear,0,2014-02-08 02:54:00
10:54 PM,8.1,-0.0,70,30.48,10.0,Calm,Calm,-,N/A,,Clear,0,2014-02-08 03:54:00
11:54 PM,8.1,-0.0,70,30.47,10.0,North,3.5,-,N/A,,Clear,10,2014-02-08 04:54:00